www.pogodaiklimat.ru

Архив погоды в Аральске (Кызылординская область, Казахстан)

Время
(UTC), дата
09 18.06
12 18.06
15 18.06
18 18.06
21 18.06
00 19.06
03 19.06
06 19.06
09 19.06
12 19.06
15 19.06
18 19.06
21 19.06
00 20.06
03 20.06
06 20.06
09 20.06
12 20.06
15 20.06
18 20.06
21 20.06
00 21.06
03 21.06
06 21.06
09 21.06
12 21.06
15 21.06
18 21.06
21 21.06
00 22.06
03 22.06
06 22.06
09 22.06
12 22.06
15 22.06
18 22.06
21 22.06
00 23.06
03 23.06
06 23.06
09 23.06
12 23.06
15 23.06
18 23.06
21 23.06
00 24.06
03 24.06
06 24.06
09 24.06
12 24.06
15 24.06
18 24.06
21 24.06
00 25.06
03 25.06
06 25.06
Ветер
(напр.,м/с)
Видим. Явления Облачность Т
(С)
Тd
(С)
f
(%)
Тe
(С)
Тes
(С)
Комфортность P
(гПа)
Po
(гПа)
Тmin
(С)
Tmax
(С)
R
(мм)
R24
(мм)
S
(см)
С 6 20 км 4/4 1000 м
[Cu hum]
+37.9 +10.6 19 +37 +41 очень жарко 1013.4 1007.5
С 6 20 км 4/4 1000 м
[Cu hum]
+38.0 +8.8 17 +36 +38 очень жарко 1012.7 1006.8
СВ 6 20 км 3/1 1000 м
[Cu hum Ci sp]
+36.1 +10.4 21 +35 +35 очень жарко 1012.8 1006.9 +39.1
СВ 5 н/о ясно +32.1 +11.0 27 +32 +32 жарко 1014.2 1008.2 +39.1
СВ 5 н/о ясно +28.8 +11.0 33 +29 +29 жарко 1014.0 1007.9
СВ 4 20 км ясно +25.8 +9.2 35 +26 +26 жарко 1013.9 1007.7
СВ 5 20 км ясно +27.1 +8.1 30 +27 +30 жарко 1014.3 1008.2
СВ 5 20 км ясно +32.0 +8.9 24 +31 +39 жарко 1014.3 1008.2 +25.2
СВ 6 20 км ясно +35.1 +7.8 19 +33 +40 жарко 1013.1 1007.1
СВ 6 20 км 3/0
[Ac trans]
+36.7 +3.4 13 +34 +36 очень жарко 1011.7 1005.8
В 3 20 км 3/0
[Ci fib]
+35.5 +5.5 16 +33 +33 жарко 1010.6 1004.7 +37.5
СВ 2 н/о ясно +30.1 +8.4 26 +29 +29 жарко 1010.8 1004.8 +37.5
В 3 н/о 4/0
[Ac trans]
+26.6 +7.0 29 +26 +26 жарко 1009.6 1003.6
СВ 2 20 км 6/0
[Ac trans]
+24.2 +6.1 31 +24 +24 комфорт 1008.7 1002.6
ЮВ 2 20 км 6/0
[Ac trans Ci fib]
+29.0 +8.2 27 +28 +32 жарко 1008.8 1002.8
СЗ 8 {16} 20 км шквал {пыльная буря} 8/4 600 м
[Cb calv Ac und]
+31.3 +10.6 28 +31 +32 жарко 1008.7 1002.8 +23.0
СЗ 7 20 км {пыльная буря} 8/4 600 м
[Cb calv Ac und Ci sp]
+34.3 +11.5 25 +34 +36 очень жарко 1007.6 1001.7
З 5 20 км {пыльная буря} 9/4 600 м
[Cb calv Ac und Ci sp]
+33.9 +8.0 20 +32 +34 жарко 1005.6 999.7
ЮЗ 4 20 км 4/3 600 м
[Cb calv Ci sp]
+33.3 +7.4 20 +32 +32 жарко 1003.9 998.0 +36.3
ЮЗ 2 н/о 4/3 600 м
[Cb calv Ac trans]
+26.2 +10.0 36 +27 +27 жарко 1003.6 997.6 +36.3
СЗ 2 н/о 3/0
[Ci fib]
+24.9 +12.0 45 +27 +27 жарко 1003.3 997.2
С 3 20 км 8/0
[Ac cast]
+24.0 +11.2 45 +25 +25 комфорт 1003.7 997.6
С 5 20 км 3/0
[Ac cast]
+27.6 +11.4 36 +28 +30 жарко 1004.5 998.5
С 4 20 км 3/0
[Ci sp]
+30.2 +9.7 28 +30 +40 жарко 1004.0 998.0 +24.0
СЗ 3 20 км 3/0
[Ci sp]
+33.9 +8.6 21 +32 +46 жарко 1003.1 997.2
СЗ 4 20 км 3/0
[Ci sp]
+35.1 +7.3 18 +33 +38 жарко 1001.7 995.8
С 2 20 км 3/0
[Ci sp]
+34.0 +4.3 16 +31 +32 жарко 1001.7 995.8 +36.0
С 2 н/о пыль 3/0
[Ci sp]
+28.5 +6.1 24 +27 +27 жарко 1002.2 996.1 +36.0
В 2 н/о 5/0
[Ci sp]
+24.8 +6.5 31 +25 +25 комфорт 1002.0 995.9
В 2 20 км 8/0
[Ci sp]
+22.4 +6.8 36 +23 +23 комфорт 1002.0 995.9
ЮВ 3 20 км 3/0
[Ci sp]
+28.6 +6.4 25 +28 +31 жарко 1001.8 995.8
Ю 4 20 км 8/0
[Ac und Ci sp]
+34.4 +7.1 19 +33 +39 жарко 1001.4 995.5 +22.2
Ю 7 20 км 10/4 600 м
[Cb calv Ac und]
+34.2 +6.7 18 +32 +33 жарко 1001.1 995.2
Ю 7 20 км 10/6 600 м
[Cb calv Ac As]
+32.2 +9.3 24 +31 +32 жарко 1000.7 994.9
штиль 0 20 км 9/4 600 м
[Cb calv Ac und Ci sp]
+31.3 +11.4 29 +31 +31 жарко 1000.4 994.6 +35.4
штиль 0 н/о 9/4 600 м
[Cb calv Ac und]
+28.6 +12.6 37 +30 +30 жарко 1000.3 994.4 +35.4
СЗ 3 н/о в посл. час гроза {ливн. дождь} 9/6 600 м
[Cb calv Ac und]
+24.8 +15.2 55 +28 +28 жарко 1000.0 994.0
С 4 10 км слаб. ливневой дождь {гроза} 10/10 600 м
[Cb calv]
+20.0 +16.0 78 +23 +23 комфорт 1001.3 995.1
ЮВ 2 20 км {ливн. дождь} 9/3 600 м
[Cb calv Ac und Ci sp]
+21.4 +15.8 70 +25 +27 комфорт 1001.4 995.3
ЮЗ 5 20 км {ливн. дождь} 3/0
[Ac lent]
+27.9 +11.7 37 +29 +35 жарко 1000.8 994.9 +19.4 2
Ю 10 20 км пыльный позёмок 4/4 1000 м
[Cu med, cong]
+29.4 +8.9 28 +29 +30 жарко 1000.4 994.5
ЮЗ 11-15 {17} 20 км пыльный позёмок 6/4 600 м
[Cb calv Ac und]
+28.9 +11.7 34 +30 +30 жарко 1000.0 994.1
ЮЗ 9 {15} 20 км пыльный позёмок 4/0
[Ac lent]
+27.8 +7.6 28 +27 +27 жарко 1000.5 994.6 +30.5
З 6 н/о в посл. час ливневой дождь {пыльная буря} 9/6 600 м
[Cb calv Ac und]
+22.2 +14.4 61 +25 +25 комфорт 1001.4 995.3 +30.5
З 3 н/о 4/0
[Ac trans]
+18.6 +15.8 84 +20 +20 прохладно 1001.4 995.8
Ю 2 20 км 4/0
[Ac und]
+15.4 +13.0 86 +15 +15 холодно 1003.7 997.4
Ю 6 20 км 6/6 1000 м
[Cu med, cong]
+22.6 +12.4 52 +25 +26 комфорт 1003.8 997.7
З 13-18 {18} 20 км пыльный позёмок 8/6 600 м
[Cb calv Ci sp]
+26.6 +5.8 26 +26 +26 жарко 1003.5 997.5 +14.4 0.0
ЮЗ 10-15 {18} 20 км пыльный позёмок 6/4 600 м
[Cu med, cong Ci sp]
+29.2 +2.1 18 +27 +28 жарко 1003.2 997.2
З 9-16 {20} 20 км пыльный позёмок 4/4 1000 м
[Cu hum]
+29.6 +1.5 16 +27 +28 жарко 1003.2 997.2
З 7 {16} 20 км {пыльная буря} 3/0
[Ac und]
+28.8 +1.9 18 +27 +27 жарко 1003.4 997.4 +30.1
З 3 н/о {пыльная буря} ясно +21.2 +5.3 35 +22 +22 комфорт 1004.9 998.7 +30.1
ЮЗ 2 н/о ясно +17.2 +5.5 46 +18 +18 холодно 1005.4 999.2
Ю 2 20 км 5/0
[Ci sp]
+14.9 +7.1 60 +15 +15 холодно 1006.5 1000.2
ЮЗ 2 20 км 8/0
[Ac und]
+22.6 +6.1 34 +23 +25 комфорт 1007.2 1001.1
З 4 20 км 3/0
[Ac und]
+28.6 +6.7 25 +28 +36 жарко 1006.9 1000.9 +14.4
Местоположение метеостанции Аральск (Кызылординская область, Казахстан): широта 46.78 долгота 61.65 высота над уровнем моря 62 м.
В архиве по умолчанию представлена погода в Аральске за последнюю неделю. Архивные данные за месяц целиком и за предыдущие месяцы, начиная с января 2011 года, Вы можете получить, выбрав интересующий диапазон дат из раскрывающегося списка и нажав кнопку "Найти!".
*Определитесь, кто Вы:
Внимание! Время в таблицах - всемирное. Для получения местного времени необходимо прибавить поправку, которая равна 6 ч.
Некоторые строки с данными для отдельных станций могут быть выделены курсивом. Это означает, что фактические данные отсутствуют по различным причинам, а приведенные значения являются расчетными модельными данными для данного пункта наблюдений.
Смотрите также архив погоды в соседних городах и на ближайших метеорологических станциях:
Партнеры нашего сайта:      
Пояснения к столбцам:
  • Ветер - указаны скорость ветра в м/с - средняя за 10 мин, порывы в срок и между сроками (в фигурных скобках) и направление, откуда дует ветер: С - северный,
  • СВ - северо-восточный, В - восточный, ЮВ - юго-восточный, Ю - южный, ЮЗ - юго-западный, З - западный, СЗ - северо-западный.
  • Видимость - горизонтальная дальность видимости в метрах или километрах. При видимости от 1 до 10 км при отсутствии осадков обычно наблюдается дымка, при ухудшении видимости до 1 км и менее - туман. В сухую погоду видимость может ухудшаться дымом, пылью или мглою.
  • Явления - указаны атмосферные явления, наблюдавшиеся в срок или в последний час перед сроком; фигурными скобками обозначены явления, наблюдавшиеся между сроками (за 1-3 часа до срока); квадратными скобками обозначены град или гололедные отложения с указанием их диаметра в мм.
  • Облачность - указаны через наклонную черту общая и нижняя облачность в баллах и высота нижней границы облаков в метрах; квадратными скобками обозначены формы облаков: Ci - перистые, Cs - перисто-слоистые, Cc - перисто-кучевые, Ac - высококучевые, As - высокослоистые, Sc - слоисто-кучевые, Ns - слоисто-дождевые, Cu - кучевые, Cb - кучево-дождевые. Подробнее классификацию облаков см. в Атласе облаков (PDF).
  • T - Температура воздуха - температура, измеренная на высоте 2 м над землей.
  • Td - Температура точки росы - температура, при понижении до которой содержащийся в воздухе водяной пар достигнет насыщения.
  • f - Относительная влажность воздуха - влажноcть воздуха, измеренная на высоте 2 м над землей.
  • Te - Эффективная температура - температура, которую ощущает одетый по сезону человек в тени. Характеристика душности погоды. При расчете учитывается влияние влажности воздуха и скорости ветра на теплоощущения человека.
  • Tes - Эффективная температура на солнце - температура, которую ощущает человек, с поправкой на солнечный нагрев. Характеристика знойности погоды. Зависит от высоты солнца над горизонтом, облачности и скорости ветра. Ночью, в пасмурную погоду, а также при ветре 12 м/с и более поправка равна нулю.
  • P - Атмосферное давление - приведенное к уровню моря атмосферное давление.
  • Po - Атмосферное давление - измеренное на уровне метеостанции атмосферное давление.
  • Tmin - Минимальная температура - минимум температуры воздуха на высоте 2 м над землей.
  • Tmax - Максимальная температура - максимум температуры воздуха на высоте 2 м над землей.
  • R - Количество осадков - Количество выпавших осадков за период времени, мм. При наведении курсора мыши на число - период времени, за который выпало указанное количество осадков.
  • R24 - Количество осадков - Количество выпавших осадков за 24 часа, мм.
  • S - Снежный покров - Высота снежного покрова, см. При наведении курсора мыши на число - состояние снежного покрова и степень покрытия местности в баллах.